Time,TemperatureF,DewpointF,PressureIn,WindDirection,WindDirectionDegrees,WindSpeedMPH,WindSpeedGustMPH,Humidity,HourlyPrecipIn,Conditions,Clouds,dailyrainin,SoftwareType,DateUTC
2013-02-22 00:07:00,34.0,1.9,29.53,WNW,289,0.0,0.0,25,0.00,,,0.00,VWS V14.01,2013-02-22 05:07:00,
2013-02-22 00:22:00,33.8,1.7,29.53,WNW,289,0.0,0.0,25,0.00,,,0.00,VWS V14.01,2013-02-22 05:22:00,
2013-02-22 00:37:00,33.8,1.7,29.53,WNW,289,0.0,0.0,25,0.00,,,0.00,VWS V14.01,2013-02-22 05:37:00,
2013-02-22 00:52:00,34.0,1.9,29.50,WNW,289,0.0,0.0,25,0.00,,,0.00,VWS V14.01,2013-02-22 05:52:00,
2013-02-22 01:07:00,34.0,1.9,29.50,WNW,289,0.0,0.0,25,0.00,,,0.00,VWS V14.01,2013-02-22 06:07:00,
2013-02-22 01:22:00,34.2,2.0,29.50,WNW,289,0.0,0.0,25,0.00,,,0.00,VWS V14.01,2013-02-22 06:22:00,
2013-02-22 01:37:00,34.3,2.2,29.50,WNW,289,0.0,0.0,25,0.00,,,0.00,VWS V14.01,2013-02-22 06:37:00,
2013-02-22 01:52:00,34.5,2.3,29.50,WNW,289,0.0,0.0,25,0.00,,,0.00,VWS V14.01,2013-02-22 06:52:00,
2013-02-22 02:07:00,34.5,2.3,29.50,WNW,289,0.0,0.0,25,0.00,,,0.00,VWS V14.01,2013-02-22 07:07:00,
2013-02-22 02:22:00,34.5,6.3,29.44,NW,307,0.0,3.6,30,0.00,,,0.00,VWS V14.01,2013-02-22 07:22:00,
2013-02-22 02:37:00,36.0,9.0,29.44,SW,216,0.0,0.0,32,0.00,,,0.00,VWS V14.01,2013-02-22 07:37:00,
2013-02-22 02:52:00,36.7,11.6,29.44,NW,307,0.0,5.8,35,0.00,,,0.00,VWS V14.01,2013-02-22 07:52:00,
2013-02-22 03:07:00,37.6,13.1,29.41,SE,126,0.0,3.6,36,0.00,,,0.00,VWS V14.01,2013-02-22 08:07:00,
2013-02-22 03:22:00,37.8,13.2,29.41,South,177,4.9,5.8,36,0.00,,,0.00,VWS V14.01,2013-02-22 08:22:00,
2013-02-22 03:37:00,39.4,10.5,29.41,West,269,3.6,7.6,30,0.00,,,0.00,VWS V14.01,2013-02-22 08:37:00,
2013-02-22 03:52:00,39.7,10.9,29.41,SW,218,0.0,5.8,30,0.00,,,0.00,VWS V14.01,2013-02-22 08:52:00,
2013-02-22 04:07:00,39.4,11.3,29.41,WSW,248,0.0,5.8,31,0.00,,,0.00,VWS V14.01,2013-02-22 09:07:00,
2013-02-22 04:22:00,39.2,11.1,29.41,WSW,243,0.0,4.0,31,0.04,,,0.04,VWS V14.01,2013-02-22 09:22:00,
2013-02-22 04:37:00,39.2,12.5,29.41,ESE,105,0.0,3.1,33,0.04,,,0.04,VWS V14.01,2013-02-22 09:37:00,
2013-02-22 04:52:00,39.2,12.5,29.41,West,267,0.0,4.0,33,0.04,,,0.04,VWS V14.01,2013-02-22 09:52:00,
2013-02-22 05:07:00,39.4,13.4,29.38,West,272,0.0,5.8,34,0.04,,,0.04,VWS V14.01,2013-02-22 10:07:00,
2013-02-22 05:22:00,39.4,14.7,29.38,NNW,335,0.0,0.0,36,0.04,,,0.04,VWS V14.01,2013-02-22 10:22:00,
2013-02-22 05:37:00,39.4,15.3,29.38,WNW,283,2.7,2.7,37,0.04,,,0.08,VWS V14.01,2013-02-22 10:37:00,
2013-02-22 05:52:00,39.4,16.5,29.38,WNW,294,0.0,4.0,39,0.04,,,0.08,VWS V14.01,2013-02-22 10:52:00,
2013-02-22 06:07:00,39.0,16.8,29.38,WSW,258,0.0,0.0,40,0.04,,,0.08,VWS V14.01,2013-02-22 11:07:00,
2013-02-22 06:22:00,39.6,17.8,29.38,WSW,249,0.0,3.1,41,0.04,,,0.08,VWS V14.01,2013-02-22 11:22:00,
2013-02-22 06:37:00,39.6,17.2,29.38,NW,318,0.0,0.0,40,0.04,,,0.08,VWS V14.01,2013-02-22 11:37:00,
2013-02-22 06:52:00,40.3,17.3,29.38,SSW,194,3.1,7.2,39,0.00,,,0.08,VWS V14.01,2013-02-22 11:52:00,
2013-02-22 07:07:00,40.5,15.0,29.38,ESE,113,2.7,5.8,35,0.00,,,0.08,VWS V14.01,2013-02-22 12:07:00,
2013-02-22 07:22:00,40.6,15.1,29.38,SE,133,0.0,5.4,35,0.00,,,0.08,VWS V14.01,2013-02-22 12:22:00,
2013-02-22 07:37:00,41.0,13.4,29.38,WNW,283,2.2,5.4,32,0.00,,,0.08,VWS V14.01,2013-02-22 12:37:00,
2013-02-22 07:52:00,41.4,13.0,29.38,SE,138,0.0,8.1,31,0.00,,,0.08,VWS V14.01,2013-02-22 12:52:00,
2013-02-22 08:07:00,41.7,13.3,29.38,ESE,105,4.9,6.3,31,0.00,,,0.08,VWS V14.01,2013-02-22 13:07:00,
2013-02-22 08:22:00,42.1,12.9,29.38,WSW,253,6.3,6.3,30,0.00,,,0.08,VWS V14.01,2013-02-22 13:22:00,
2013-02-22 08:37:00,42.3,13.1,29.38,SSE,156,0.0,6.3,30,0.00,,,0.08,VWS V14.01,2013-02-22 13:37:00,
2013-02-22 08:52:00,42.4,13.2,29.38,SSE,167,3.1,8.1,30,0.00,,,0.08,VWS V14.01,2013-02-22 13:52:00,
2013-02-22 09:07:00,42.6,13.4,29.41,SE,139,4.0,5.8,30,0.00,,,0.08,VWS V14.01,2013-02-22 14:07:00,
2013-02-22 09:22:00,42.8,12.8,29.38,ESE,111,4.0,7.6,29,0.00,,,0.08,VWS V14.01,2013-02-22 14:22:00,
2013-02-22 09:37:00,42.8,12.8,29.38,SE,135,6.7,6.7,29,0.00,,,0.08,VWS V14.01,2013-02-22 14:37:00,
2013-02-22 09:52:00,43.0,12.9,29.38,SE,130,3.6,6.7,29,0.00,,,0.08,VWS V14.01,2013-02-22 14:52:00,
2013-02-22 10:07:00,43.7,13.5,29.38,SW,232,2.7,8.1,29,0.00,,,0.08,VWS V14.01,2013-02-22 15:07:00,
2013-02-22 10:22:00,44.2,14.0,29.38,South,185,4.0,7.6,29,0.00,,,0.08,VWS V14.01,2013-02-22 15:22:00,
2013-02-22 10:37:00,45.0,13.8,29.38,SSE,147,5.4,8.1,28,0.00,,,0.08,VWS V14.01,2013-02-22 15:37:00,
2013-02-22 10:52:00,45.9,14.6,29.38,ESE,103,0.0,6.3,28,0.00,,,0.08,VWS V14.01,2013-02-22 15:52:00,
2013-02-22 11:07:00,46.2,14.9,29.38,South,175,4.0,8.7,28,0.00,,,0.08,VWS V14.01,2013-02-22 16:07:00,
2013-02-22 11:22:00,48.0,15.6,29.38,SSE,164,0.0,6.3,27,0.00,,,0.08,VWS V14.01,2013-02-22 16:22:00,
2013-02-22 11:37:00,48.7,16.3,29.38,SSW,200,3.1,8.1,27,0.00,,,0.08,VWS V14.01,2013-02-22 16:37:00,
2013-02-22 11:52:00,49.3,15.9,29.38,SSE,151,3.6,7.6,26,0.00,,,0.08,VWS V14.01,2013-02-22 16:52:00,
2013-02-22 12:07:00,49.1,16.6,29.38,SSE,152,2.7,6.7,27,0.00,,,0.08,VWS V14.01,2013-02-22 17:07:00,
2013-02-22 12:22:00,50.4,16.8,29.38,SSE,165,5.8,8.1,26,0.00,,,0.08,VWS V14.01,2013-02-22 17:22:00,
2013-02-22 12:37:00,49.6,16.2,29.38,South,187,4.0,9.2,26,0.00,,,0.08,VWS V14.01,2013-02-22 17:37:00,
2013-02-22 12:52:00,49.6,16.2,29.38,SE,141,9.2,9.2,26,0.00,,,0.08,VWS V14.01,2013-02-22 17:52:00,
2013-02-22 13:07:00,50.2,16.6,29.35,SE,133,5.8,9.2,26,0.00,,,0.08,VWS V14.01,2013-02-22 18:07:00,
2013-02-22 13:22:00,50.2,16.6,29.35,SSE,154,2.7,8.3,26,0.00,,,0.08,VWS V14.01,2013-02-22 18:22:00,
2013-02-22 13:37:00,50.4,16.8,29.35,ESE,122,4.9,8.3,26,0.00,,,0.08,VWS V14.01,2013-02-22 18:37:00,
2013-02-22 13:52:00,51.4,17.7,29.35,ESE,108,0.0,7.6,26,0.00,,,0.08,VWS V14.01,2013-02-22 18:52:00,
2013-02-22 14:07:00,51.8,15.2,29.35,South,177,4.0,6.3,23,0.00,,,0.08,VWS V14.01,2013-02-22 19:07:00,
2013-02-22 14:22:00,52.2,15.5,29.32,South,180,3.6,9.6,23,0.00,,,0.08,VWS V14.01,2013-02-22 19:22:00,
2013-02-22 14:37:00,52.7,16.0,29.32,SSW,207,4.9,6.3,23,0.00,,,0.08,VWS V14.01,2013-02-22 19:37:00,
2013-02-22 14:52:00,52.5,15.8,29.32,South,173,6.7,8.3,23,0.00,,,0.08,VWS V14.01,2013-02-22 19:52:00,
2013-02-22 15:07:00,52.7,16.0,29.32,SSE,157,10.1,10.1,23,0.00,,,0.08,VWS V14.01,2013-02-22 20:07:00,
2013-02-22 15:22:00,52.5,15.8,29.32,South,181,4.9,10.1,23,0.00,,,0.08,VWS V14.01,2013-02-22 20:22:00,
2013-02-22 15:37:00,52.3,15.7,29.32,SE,144,0.0,5.8,23,0.00,,,0.08,VWS V14.01,2013-02-22 20:37:00,
2013-02-22 15:52:00,52.7,16.0,29.32,South,179,4.5,5.4,23,0.00,,,0.08,VWS V14.01,2013-02-22 20:52:00,
2013-02-22 16:07:00,52.9,16.1,29.32,South,173,2.7,8.7,23,0.00,,,0.08,VWS V14.01,2013-02-22 21:07:00,
2013-02-22 16:22:00,53.1,16.3,29.29,ESE,102,3.1,8.3,23,0.00,,,0.08,VWS V14.01,2013-02-22 21:22:00,
2013-02-22 16:37:00,53.1,16.3,29.29,SSE,167,3.6,7.6,23,0.00,,,0.08,VWS V14.01,2013-02-22 21:37:00,
2013-02-22 16:52:00,52.9,16.1,29.29,South,181,0.0,6.3,23,0.00,,,0.08,VWS V14.01,2013-02-22 21:52:00,
2013-02-22 17:07:00,52.7,16.0,29.29,SSE,162,3.1,7.6,23,0.00,,,0.08,VWS V14.01,2013-02-22 22:07:00,
2013-02-22 17:22:00,52.2,15.5,29.29,South,177,0.0,5.4,23,0.00,,,0.08,VWS V14.01,2013-02-22 22:22:00,
2013-02-22 17:37:00,51.6,16.0,29.29,SE,127,3.1,6.7,24,0.00,,,0.08,VWS V14.01,2013-02-22 22:37:00,
2013-02-22 17:52:00,51.6,16.0,29.29,South,176,4.0,5.4,24,0.00,,,0.08,VWS V14.01,2013-02-22 22:52:00,
2013-02-22 18:07:00,51.3,15.7,29.29,SSE,167,2.7,7.6,24,0.00,,,0.08,VWS V14.01,2013-02-22 23:07:00,
2013-02-22 18:22:00,51.1,15.6,29.29,ESE,115,0.0,8.1,24,0.00,,,0.08,VWS V14.01,2013-02-22 23:22:00,
2013-02-22 18:37:00,50.4,14.9,29.32,South,179,0.0,3.1,24,0.00,,,0.08,VWS V14.01,2013-02-22 23:37:00,
2013-02-22 18:52:00,49.5,16.0,29.32,South,170,0.0,4.9,26,0.00,,,0.08,VWS V14.01,2013-02-22 23:52:00,
2013-02-22 19:07:00,49.1,15.7,29.32,SE,136,0.0,4.0,26,0.00,,,0.08,VWS V14.01,2013-02-23 00:07:00,
2013-02-22 19:22:00,48.7,15.4,29.32,SE,142,0.0,0.0,26,0.00,,,0.08,VWS V14.01,2013-02-23 00:22:00,
2013-02-22 19:37:00,48.6,15.2,29.32,SE,136,0.0,5.4,26,0.00,,,0.08,VWS V14.01,2013-02-23 00:37:00,
2013-02-22 19:52:00,48.2,15.8,29.32,South,185,0.0,2.2,27,0.00,,,0.08,VWS V14.01,2013-02-23 00:52:00,
2013-02-22 20:07:00,47.7,15.3,29.32,South,185,0.0,0.0,27,0.00,,,0.08,VWS V14.01,2013-02-23 01:07:00,
2013-02-22 20:22:00,47.1,14.9,29.32,South,185,0.0,0.0,27,0.00,,,0.08,VWS V14.01,2013-02-23 01:22:00,
2013-02-22 20:37:00,46.2,14.9,29.32,South,185,0.0,0.0,28,0.00,,,0.08,VWS V14.01,2013-02-23 01:37:00,
2013-02-22 20:52:00,45.9,14.6,29.32,South,185,0.0,0.0,28,0.00,,,0.08,VWS V14.01,2013-02-23 01:52:00,
2013-02-22 21:07:00,45.5,14.3,29.32,South,185,0.0,0.0,28,0.00,,,0.08,VWS V14.01,2013-02-23 02:07:00,
2013-02-22 21:22:00,44.8,14.5,29.32,South,185,0.0,0.0,29,0.00,,,0.08,VWS V14.01,2013-02-23 02:22:00,
2013-02-22 21:37:00,44.2,14.8,29.32,ESE,114,0.0,0.0,30,0.00,,,0.08,VWS V14.01,2013-02-23 02:37:00,
2013-02-22 21:52:00,44.2,15.5,29.35,ESE,114,0.0,0.0,31,0.00,,,0.08,VWS V14.01,2013-02-23 02:52:00,
2013-02-22 22:07:00,43.7,15.8,29.32,ESE,114,0.0,0.0,32,0.00,,,0.08,VWS V14.01,2013-02-23 03:07:00,
2013-02-22 22:22:00,43.3,16.9,29.32,ESE,114,0.0,0.0,34,0.00,,,0.08,VWS V14.01,2013-02-23 03:22:00,
2013-02-22 22:37:00,43.2,16.7,29.32,ESE,114,0.0,0.0,34,0.00,,,0.08,VWS V14.01,2013-02-23 03:37:00,
2013-02-22 22:52:00,43.0,17.2,29.32,ESE,114,0.0,0.0,35,0.00,,,0.08,VWS V14.01,2013-02-23 03:52:00,
2013-02-22 23:07:00,42.6,17.5,29.32,ESE,114,0.0,0.0,36,0.00,,,0.08,VWS V14.01,2013-02-23 04:07:00,
2013-02-22 23:22:00,42.3,17.9,29.32,ESE,114,0.0,0.0,37,0.00,,,0.08,VWS V14.01,2013-02-23 04:22:00,
2013-02-22 23:37:00,41.9,18.2,29.32,ESE,114,0.0,0.0,38,0.00,,,0.08,VWS V14.01,2013-02-23 04:37:00,
2013-02-22 23:52:00,41.4,17.7,29.32,ESE,114,0.0,0.0,38,0.00,,,0.00,VWS V14.01,2013-02-23 04:52:00,